AMAZONAS 4A (39616 NORAD) Tracking and Keplerian Element Data

This shows tracking and keplerian element data for the satellite.

Feedback or suggestion? Click here.




ElementValue
Catalog39616
NameAMAZONAS 4A
Epoch Orbit4291
Epoch Day354.1053078
Epoch Year2025
RAAN193.3786
Inclination0.0648
Eccentricity0.0004809
Argument of Perigee55.8569
Mean Anonmoly163.6282
Mean Motion1.00273209
Decay Rate-2.28E-06
L11 39616U 14011A 25354.10530780 -.00000228 00000+0 00000+0 0 9996
L22 39616 0.0648 193.3786 0004809 55.8569 163.6282 1.00273209 42919



Live tracking and technical data element details for AMAZONAS 4A (NORAD 39616). AMAZONAS 4A can be tracked NOW for your location showing map with azimuth and elevation plus other details from your city location.







IsCatalogInMostPopularTable: catalog: 39616, numindb: 582
Update: records affected: 1



GetName: 39616 AMAZONAS 4A

Hit Count: updated at: Sat, 14 Mar 2026 02:46:32 GMT